Вернуться в каталог

ERS 1

АктивенНаукаSSO
NORAD 21574·PAYLOAD·🇪🇺 EU

Запущен Jul 17, 1991 с Guiana Space Centre

Loading…

Ближайшие Пролёты (ближайшие 24 часа)

TLE

СвежийSource: Space-Track

Эпоха: Sep 14, 2026, 11:31 UTC

1 21574U 91050A   26257.48055152  .00000192  00000-0  76020-4 0  9997
2 21574  98.7778 280.3536 0031903   4.1698 355.9749 14.39564537842898

Отслеживайте ERS 1 в реальном времени с AllMySat

Download on the App Store